Location: Unspecified
(0.0000°N, 0.0000°E)
Time: 03:12:36
(UTC+00:00)

ISS - Pass Details

Date: 13 November 2019
Orbit: 412 x 421 km, 51.6° (Epoch: 12 November)

Event Time Altitude Azimuth Distance (km) Brightness Sun altitude
Rises 18:03:52 0° 182° (S) 2,345 0.3 -4.7°
Reaches altitude 10° 18:07:15 10° 145° (SE) 1,482 -1.1 -5.5°
Maximum altitude 18:08:19 11° 126° (SE) 1,413 -1.4 -5.7°
Drops below altitude 10° 18:09:23 10° 108° (ESE) 1,482 -1.5 -6.0°
Enters shadow 18:10:40 - 89° (E) 1,725 -1.3 -6.3°
